AirNav   Everest Fuels
 
 1096 users online  

KNUI Webster Naval Outlying Field
St Inigoes, Maryland, USA

GOING TO ST INIGOES?


FAA INFORMATION EFFECTIVE 18 JUNE 2020

Location

FAA Identifier: NUI
Lat/Long: 38-08-45.6000N 076-25-42.5000W
38-08.760000N 076-25.708333W
38.1460000,-76.4284722
(estimated)
Elevation: 21.6 ft. / 6.6 m (surveyed)
Variation: 11W (2003)
From city: 2 miles W of ST INIGOES, MD
Time zone: UTC -4 (UTC -5 during Standard Time)
Zip code: 20684

Airport Operations

Airport use: Private use. Permission required prior to landing
Control tower: yes
ARTCC: WASHINGTON CENTER
FSS: LEESBURG FLIGHT SERVICE STATION
Attendance: MON-FRI 0800-1600, OT O/R; CLSD HOL./
Segmented circle: no

Airport Communications

NAVY WEBSTER TOWER: 126.2 358.0 [MON-FRI, EXC HOL, OT O/R, 1400-2200Z++ OR SS, WHICHEVER OCCURS FIRST.]
PATUXENT APPROACH: 121.0
PATUXENT DEPARTURE: 121.0
WX AWOS-3 at 2W6 (12 nm NW): 119.575 (301-373-6514)

Nearby radio navigation aids

VOR radial/distance  VOR name  Freq  Var
PXTr199/8.6PATUXENT VORTAC117.6010W
OTTr166/36.7NOTTINGHAM VORTAC113.7010W

 
NDB name  Hdg/Dist  Freq  Var  ID
PATUXENT198/8.540010WNHK -. .... -.-

Airport Services

Runway Information

Runway 8/26

Dimensions: 5000 x 150 ft. / 1524 x 46 m
Surface: asphalt
Weight bearing capacity: 
PCN 61 /F/B/W/T
RUNWAY 8  RUNWAY 26
Latitude: 38-08.544830N38-08.880795N
Longitude: 076-26.068178W076-25.115755W
Elevation: 12.6 ft.21.5 ft.
Traffic pattern: leftleft
Runway heading: 076 magnetic, 065 true256 magnetic, 245 true

Runway 15/33

Dimensions: 5000 x 150 ft. / 1524 x 46 m
Surface: asphalt
Weight bearing capacity: 
PCN 77 /F/B/W/T
RUNWAY 15  RUNWAY 33
Latitude: 38-09.147232N38-08.500232N
Longitude: 076-26.145728W076-25.499960W
Elevation: 13.7 ft.19.7 ft.
Traffic pattern: leftleft
Runway heading: 152 magnetic, 141 true332 magnetic, 321 true
Touchdown point: no, no lightsyes, no lights

Airport Ownership and Management from official FAA records

Ownership: U.S. Army
Owner: NAVY
NAWCAD PAX RIVER-UNIT 11
ST INIGOES, MD 20684-0010
Phone 301-862-8209
Manager: Phone 301-995-6480

Additional Remarks

NO SVCG AVBL.
RSTD: PPR, DSN 342-3836, C301-342-3836.
FOR CD WHEN NHK APCH IS CLSD CTC POTOMAC APCH AT 866-640-4124.

Instrument Procedures

There are no published instrument procedures at KNUI.

Some nearby airports with instrument procedures:

KNHK - Patuxent River Naval Air Station (Trapnell Field) (8 nm N)
2W6 - St Mary's County Regional Airport (12 nm NW)
KXSA - Tappahannock-Essex County Airport (28 nm SW)
KTGI - Tangier Island Airport (28 nm SE)
W41 - Crisfield-Somerset County Airport (29 nm E)
 
Loc | Ops | Rwys | IFR | FBO | Links
Com | Nav | Svcs | Stats | Notes
Area around KNUI (Webster Naval Outlying Field)
 
Road maps at: MapQuest Bing Google
 
Aerial photo
WARNING: Photo may not be current or correct
Aerial photo of KNUI (Webster Naval Outlying Field)
Photo taken 12-Aug-2006

Do you have a better or more recent aerial photo of Webster Naval Outlying Field that you would like to share? If so, please send us your photo.

 
Sectional chart

 
Airport distance calculator
Flying to Webster Naval Outlying Field? Find the distance to fly.

From to KNUI

Sunrise and sunset
Times for 08-Jul-2020
 Local
(UTC-4)
 Zulu
(UTC)
Morning civil twilight05:2109:21
Sunrise05:5209:52
Sunset20:3000:30
Evening civil twilight21:0101:01

Current date and time
Zulu (UTC)  08-Jul-2020 22:26:16
Local (UTC-4)  08-Jul-2020 18:26:16
 
METAR
KNUI 082153Z AUTO 12008KT 10SM CLR 31/23 A2992 RMK AO2 SLP130 T03060228
KNHK 
7nm N 
082152Z 15008KT 10SM FEW030 FEW100 SCT260 29/23 A2993 RMK AO2 SLP134 T02940228 $
K2W6 
12nm NW 
082215Z AUTO 13007KT 100V160 10SM CLR 28/21 A2995 RMK AO1
TAF
KNHK 
7nm N 
0815/0915 13007KT 9999 SCT015 QNH2997INS BECMG 0816/0817 13010KT 9999 FEW020 SCT260 QNH2991INS BECMG 0906/0908 VRB05KT 9999 BKN010 QNH2992INS T31/0820Z T24/0910Z FN20065
NOTAMs
Click for the latest NOTAMs
NOTAMs are issued by the DoD/FAA and will open in a separate window not controlled by AirNav.

 

 
 

Would you like to see your business listed on this page?

 If your business provides an interesting product or service to pilots, flight crews, aircraft, or users of the Webster Naval Outlying Field, you should consider listing it here.  To start the listing process, click on the button below
 
Add a business
 

Other Pages about Webster Naval Outlying Field

Update a link
 
Copyright © AirNav, LLC. All rights reserved. Privacy Policy  Contact